Year,Month,Day,Hour,Minute,Value (Times are PST for temperature in C)
2020,08,06,07,42,12.70
2020,08,06,07,43,12.60
2020,08,06,07,44,12.70
2020,08,06,07,45,12.70
2020,08,06,07,46,12.70
2020,08,06,07,47,12.70
2020,08,06,07,48,12.70
2020,08,06,07,49,12.80
2020,08,06,07,50,12.80
2020,08,06,07,51,12.80
2020,08,06,07,52,12.80
2020,08,06,07,53,12.80
2020,08,06,07,54,12.80
2020,08,06,07,55,12.80
2020,08,06,07,56,12.80
2020,08,06,07,57,12.80
2020,08,06,07,58,12.80
2020,08,06,07,59,12.90
2020,08,06,08,00,12.90
2020,08,06,08,01,12.90
2020,08,06,08,02,12.90
2020,08,06,08,03,12.90
2020,08,06,08,04,12.90
2020,08,06,08,05,13.00
2020,08,06,08,06,13.00
2020,08,06,08,07,13.10
2020,08,06,08,08,13.10
2020,08,06,08,09,13.10
2020,08,06,08,10,13.10
2020,08,06,08,11,13.10
2020,08,06,08,12,13.10
2020,08,06,08,13,13.10
2020,08,06,08,14,13.10
2020,08,06,08,15,13.10
2020,08,06,08,16,13.10
2020,08,06,08,17,13.10
2020,08,06,08,18,13.20
2020,08,06,08,19,13.20
2020,08,06,08,20,13.20
2020,08,06,08,21,13.30
2020,08,06,08,22,13.30
2020,08,06,08,23,13.30
2020,08,06,08,24,13.30
2020,08,06,08,25,13.40
2020,08,06,08,26,13.40
2020,08,06,08,27,13.50
2020,08,06,08,28,13.60
2020,08,06,08,29,13.60
2020,08,06,08,30,13.70
2020,08,06,08,31,13.80
2020,08,06,08,32,13.80
2020,08,06,08,33,13.80
2020,08,06,08,34,13.80
2020,08,06,08,35,13.90
2020,08,06,08,36,14.00
2020,08,06,08,37,14.00
2020,08,06,08,38,14.10
2020,08,06,08,39,14.10
2020,08,06,08,40,14.10
2020,08,06,08,41,14.10
2020,08,06,08,42,14.10
2020,08,06,08,43,14.10
2020,08,06,08,44,14.10
2020,08,06,08,45,14.10
2020,08,06,08,46,14.20
2020,08,06,08,47,14.20
2020,08,06,08,48,14.20
2020,08,06,08,49,14.30
2020,08,06,08,50,14.30
2020,08,06,08,51,14.40
2020,08,06,08,52,14.50
2020,08,06,08,53,14.60
2020,08,06,08,54,14.70
2020,08,06,08,55,14.70
2020,08,06,08,56,14.70
2020,08,06,08,57,14.80
2020,08,06,08,58,14.80
2020,08,06,08,59,14.80
2020,08,06,09,00,14.80
2020,08,06,09,01,14.80
2020,08,06,09,02,14.90
2020,08,06,09,03,15.00
2020,08,06,09,04,15.00
2020,08,06,09,05,15.10
2020,08,06,09,06,15.20
2020,08,06,09,07,15.30
2020,08,06,09,08,15.30
2020,08,06,09,09,15.40
2020,08,06,09,10,15.40
2020,08,06,09,11,15.50
2020,08,06,09,12,15.50
2020,08,06,09,13,15.60
2020,08,06,09,14,15.60
2020,08,06,09,15,15.60
2020,08,06,09,16,15.60
2020,08,06,09,17,15.60
2020,08,06,09,18,15.60
2020,08,06,09,19,15.60
2020,08,06,09,20,15.70
2020,08,06,09,21,15.70
2020,08,06,09,22,15.80
2020,08,06,09,23,15.80
2020,08,06,09,24,15.80
2020,08,06,09,25,15.80
2020,08,06,09,26,15.80
2020,08,06,09,27,15.80
2020,08,06,09,28,15.80
2020,08,06,09,29,15.70
2020,08,06,09,30,15.70
2020,08,06,09,31,15.70
2020,08,06,09,32,15.70
2020,08,06,09,33,15.70
2020,08,06,09,34,15.80
2020,08,06,09,35,15.80
2020,08,06,09,36,15.80
2020,08,06,09,37,15.80
2020,08,06,09,38,15.80
2020,08,06,09,39,15.70
2020,08,06,09,40,15.70
2020,08,06,09,41,15.70
2020,08,06,09,42,15.70
2020,08,06,09,43,15.70
2020,08,06,09,44,15.70
2020,08,06,09,45,15.70
2020,08,06,09,46,15.80
2020,08,06,09,47,15.80
2020,08,06,09,48,15.80
2020,08,06,09,49,15.80
2020,08,06,09,50,15.80
2020,08,06,09,51,15.80
2020,08,06,09,52,15.80
2020,08,06,09,53,15.80
2020,08,06,09,54,15.80
2020,08,06,09,55,15.80
2020,08,06,09,56,15.80
2020,08,06,09,57,15.90
2020,08,06,09,58,15.90
2020,08,06,09,59,16.00
2020,08,06,10,00,16.10
2020,08,06,10,01,16.20
2020,08,06,10,02,16.20
2020,08,06,10,03,16.30
2020,08,06,10,04,16.40
2020,08,06,10,05,16.40
2020,08,06,10,06,16.50
2020,08,06,10,07,16.60
2020,08,06,10,08,16.60
2020,08,06,10,09,16.60
2020,08,06,10,10,16.50
2020,08,06,10,11,16.40
2020,08,06,10,12,16.40
2020,08,06,10,13,16.30
2020,08,06,10,14,16.30
2020,08,06,10,15,16.20
2020,08,06,10,16,16.20
2020,08,06,10,17,16.20
2020,08,06,10,18,16.20
2020,08,06,10,19,16.20
2020,08,06,10,20,16.20
2020,08,06,10,21,16.20
2020,08,06,10,22,16.20
2020,08,06,10,23,16.20
2020,08,06,10,24,16.20
2020,08,06,10,25,16.30
2020,08,06,10,26,16.30
2020,08,06,10,27,16.30
2020,08,06,10,28,16.30
2020,08,06,10,29,16.30
2020,08,06,10,30,16.30
2020,08,06,10,31,16.30
2020,08,06,10,32,16.40
2020,08,06,10,33,16.40
2020,08,06,10,34,16.40
2020,08,06,10,35,16.40
2020,08,06,10,36,16.40
2020,08,06,10,37,16.30
2020,08,06,10,38,16.30
2020,08,06,10,39,16.30
2020,08,06,10,40,16.20
2020,08,06,10,41,16.10
2020,08,06,10,42,16.10
2020,08,06,10,43,16.10
2020,08,06,10,44,16.10
2020,08,06,10,45,16.10
2020,08,06,10,46,16.10
2020,08,06,10,47,16.10
2020,08,06,10,48,16.10
2020,08,06,10,49,16.10
2020,08,06,10,50,16.10
2020,08,06,10,51,16.10
2020,08,06,10,52,16.10
2020,08,06,10,53,16.10
2020,08,06,10,54,16.10
2020,08,06,10,55,16.10
2020,08,06,10,56,16.10
2020,08,06,10,57,16.10
2020,08,06,10,58,16.10
2020,08,06,10,59,16.10
2020,08,06,11,00,16.00
2020,08,06,11,01,16.10
2020,08,06,11,02,16.10
2020,08,06,11,03,16.10
2020,08,06,11,04,16.10
2020,08,06,11,05,16.10
2020,08,06,11,06,16.20
2020,08,06,11,07,16.20
2020,08,06,11,08,16.30
2020,08,06,11,09,16.30
2020,08,06,11,10,16.30
2020,08,06,11,11,16.30
2020,08,06,11,12,16.30
2020,08,06,11,13,16.40
2020,08,06,11,14,16.40
2020,08,06,11,15,16.40
2020,08,06,11,16,16.50
2020,08,06,11,17,16.50
2020,08,06,11,18,16.60
2020,08,06,11,19,16.60
2020,08,06,11,20,16.70
2020,08,06,11,21,16.70
2020,08,06,11,22,16.80
2020,08,06,11,23,16.80
2020,08,06,11,24,16.90
2020,08,06,11,25,17.00
2020,08,06,11,26,17.20
2020,08,06,11,27,17.30
2020,08,06,11,28,17.40
2020,08,06,11,29,17.50
2020,08,06,11,30,17.60
2020,08,06,11,31,17.80
2020,08,06,11,32,17.90
2020,08,06,11,33,18.00
2020,08,06,11,34,18.20
2020,08,06,11,35,18.30
2020,08,06,11,36,18.30
2020,08,06,11,37,18.30
2020,08,06,11,38,18.30
2020,08,06,11,39,18.40
2020,08,06,11,40,18.50
2020,08,06,11,41,18.50
2020,08,06,11,42,18.60
2020,08,06,11,43,18.60
2020,08,06,11,44,18.70
2020,08,06,11,45,18.70
2020,08,06,11,46,18.60
2020,08,06,11,47,18.70
2020,08,06,11,48,18.70
2020,08,06,11,49,18.70
2020,08,06,11,50,18.70
2020,08,06,11,51,18.70
2020,08,06,11,52,18.70
2020,08,06,11,53,18.60
2020,08,06,11,54,18.60
2020,08,06,11,55,18.60
2020,08,06,11,56,18.70
2020,08,06,11,57,18.70
2020,08,06,11,58,18.70
2020,08,06,11,59,18.70
2020,08,06,12,00,18.70
2020,08,06,12,01,18.70
2020,08,06,12,02,18.80
2020,08,06,12,03,18.90
2020,08,06,12,04,18.90
2020,08,06,12,05,19.00
2020,08,06,12,06,19.10
2020,08,06,12,07,19.20
2020,08,06,12,08,19.30
2020,08,06,12,09,19.20
2020,08,06,12,10,19.20
2020,08,06,12,11,19.10
2020,08,06,12,12,19.10
2020,08,06,12,13,19.20
2020,08,06,12,14,19.20
2020,08,06,12,15,19.20
2020,08,06,12,16,19.20
2020,08,06,12,17,19.20
2020,08,06,12,18,19.20
2020,08,06,12,19,19.20
2020,08,06,12,20,19.20
2020,08,06,12,21,19.30
2020,08,06,12,22,19.40
2020,08,06,12,23,19.40
2020,08,06,12,24,19.40
2020,08,06,12,25,19.40
2020,08,06,12,26,19.40
2020,08,06,12,27,19.40
2020,08,06,12,28,19.40
2020,08,06,12,29,19.40
2020,08,06,12,30,19.30
2020,08,06,12,31,19.40
2020,08,06,12,32,19.40
2020,08,06,12,33,19.60
2020,08,06,12,34,19.70
2020,08,06,12,35,19.90
2020,08,06,12,36,19.90
2020,08,06,12,37,20.00
2020,08,06,12,38,20.00
2020,08,06,12,39,20.00
2020,08,06,12,40,20.00
2020,08,06,12,41,20.10
2020,08,06,12,42,20.10
2020,08,06,12,43,20.10
2020,08,06,12,44,20.10
2020,08,06,12,45,20.10
2020,08,06,12,46,20.10
2020,08,06,12,47,20.20
2020,08,06,12,48,20.20
2020,08,06,12,49,20.30
2020,08,06,12,50,20.30
2020,08,06,12,51,20.40
2020,08,06,12,52,20.40
2020,08,06,12,53,20.50
2020,08,06,12,54,20.60
2020,08,06,12,55,20.50
2020,08,06,12,56,20.50
2020,08,06,12,57,20.40
2020,08,06,12,58,20.40
2020,08,06,12,59,20.40
2020,08,06,13,00,20.50
2020,08,06,13,01,20.50
2020,08,06,13,02,20.60
2020,08,06,13,03,20.50
2020,08,06,13,04,20.40
2020,08,06,13,05,20.30
2020,08,06,13,06,20.20
2020,08,06,13,07,20.10
2020,08,06,13,08,20.00
2020,08,06,13,09,20.00
2020,08,06,13,10,20.00
2020,08,06,13,11,20.00
2020,08,06,13,12,19.90
2020,08,06,13,13,19.90
2020,08,06,13,14,19.90
2020,08,06,13,15,19.90
2020,08,06,13,16,19.90
2020,08,06,13,17,19.90
2020,08,06,13,18,20.00
2020,08,06,13,19,20.10
2020,08,06,13,20,20.10
2020,08,06,13,21,20.10
2020,08,06,13,22,20.20
2020,08,06,13,23,20.30
2020,08,06,13,24,20.30
2020,08,06,13,25,20.40
2020,08,06,13,26,20.50
2020,08,06,13,27,20.60
2020,08,06,13,28,20.70
2020,08,06,13,29,20.70
2020,08,06,13,30,20.60
2020,08,06,13,31,20.40
2020,08,06,13,32,20.40
2020,08,06,13,33,20.40
2020,08,06,13,34,20.40
2020,08,06,13,35,20.40
2020,08,06,13,36,20.50
2020,08,06,13,37,20.60
2020,08,06,13,38,20.60
2020,08,06,13,39,20.60
2020,08,06,13,40,20.70
2020,08,06,13,41,20.70
2020,08,06,13,42,20.80
2020,08,06,13,43,20.80
2020,08,06,13,44,20.80
2020,08,06,13,45,20.90
2020,08,06,13,46,20.90
2020,08,06,13,47,21.00
2020,08,06,13,48,21.00
2020,08,06,13,49,21.10
2020,08,06,13,50,21.20
2020,08,06,13,51,21.30
2020,08,06,13,52,21.30
2020,08,06,13,53,21.30
2020,08,06,13,54,21.40
2020,08,06,13,55,21.50
2020,08,06,13,56,21.60
2020,08,06,13,57,21.70
2020,08,06,13,58,21.80
2020,08,06,13,59,21.90
2020,08,06,14,00,21.90
2020,08,06,14,01,21.90
2020,08,06,14,02,21.90
2020,08,06,14,03,21.90
2020,08,06,14,04,21.80
2020,08,06,14,05,21.80
2020,08,06,14,06,21.70
2020,08,06,14,07,21.70
2020,08,06,14,08,21.70
2020,08,06,14,09,21.70
2020,08,06,14,10,21.70
2020,08,06,14,11,21.60
2020,08,06,14,12,21.60
2020,08,06,14,13,21.60
2020,08,06,14,14,21.70
2020,08,06,14,15,21.70
2020,08,06,14,16,21.70
2020,08,06,14,17,21.60
2020,08,06,14,18,21.60
2020,08,06,14,19,21.60
2020,08,06,14,20,21.60
2020,08,06,14,21,21.60
2020,08,06,14,22,21.70
2020,08,06,14,23,21.70
2020,08,06,14,24,21.80
2020,08,06,14,25,21.80
2020,08,06,14,26,21.80
2020,08,06,14,27,21.80
2020,08,06,14,28,21.80
2020,08,06,14,29,21.80
2020,08,06,14,30,21.90
2020,08,06,14,31,22.00
2020,08,06,14,32,22.00
2020,08,06,14,33,22.00
2020,08,06,14,34,21.90
2020,08,06,14,35,21.90
2020,08,06,14,36,21.90
2020,08,06,14,37,21.90
2020,08,06,14,38,21.90
2020,08,06,14,39,21.90
2020,08,06,14,40,21.90
2020,08,06,14,41,22.00
2020,08,06,14,42,22.10
2020,08,06,14,43,22.10
2020,08,06,14,44,22.10
2020,08,06,14,45,22.20
2020,08,06,14,46,22.20
2020,08,06,14,47,22.20
2020,08,06,14,48,22.20
2020,08,06,14,49,22.30
2020,08,06,14,50,22.40
2020,08,06,14,51,22.50
2020,08,06,14,52,22.60
2020,08,06,14,53,22.60
2020,08,06,14,54,22.50
2020,08,06,14,55,22.50
2020,08,06,14,56,22.40
2020,08,06,14,57,22.30
2020,08,06,14,58,22.20
2020,08,06,14,59,22.10
2020,08,06,15,00,22.10
2020,08,06,15,01,22.20
2020,08,06,15,02,22.30
2020,08,06,15,03,22.30
2020,08,06,15,04,22.30
2020,08,06,15,05,22.30
2020,08,06,15,06,22.30
2020,08,06,15,07,22.30
2020,08,06,15,08,22.30
2020,08,06,15,09,22.20
2020,08,06,15,10,22.10
2020,08,06,15,11,22.10
2020,08,06,15,12,22.00
2020,08,06,15,13,21.90
2020,08,06,15,14,21.90
2020,08,06,15,15,21.90
2020,08,06,15,16,21.90
2020,08,06,15,17,21.80
2020,08,06,15,18,21.70
2020,08,06,15,19,21.80
2020,08,06,15,20,21.70
2020,08,06,15,21,21.70
2020,08,06,15,22,21.60
2020,08,06,15,23,21.50
2020,08,06,15,24,21.50
2020,08,06,15,25,21.60
2020,08,06,15,26,21.60
2020,08,06,15,27,21.60
2020,08,06,15,28,21.70
2020,08,06,15,29,21.80
2020,08,06,15,30,21.90
2020,08,06,15,31,22.00
2020,08,06,15,32,22.10
2020,08,06,15,33,22.10
2020,08,06,15,34,22.10
2020,08,06,15,35,22.10
2020,08,06,15,36,22.10
2020,08,06,15,37,22.00
2020,08,06,15,38,22.00
2020,08,06,15,39,22.00
2020,08,06,15,40,21.90
2020,08,06,15,41,22.00
2020,08,06,15,42,22.00
2020,08,06,15,43,22.00
2020,08,06,15,44,22.00
2020,08,06,15,45,22.00
2020,08,06,15,46,21.90
2020,08,06,15,47,21.90
2020,08,06,15,48,22.00
2020,08,06,15,49,22.10
2020,08,06,15,50,22.20
2020,08,06,15,51,22.30
2020,08,06,15,52,22.40
2020,08,06,15,53,22.50
2020,08,06,15,54,22.60
2020,08,06,15,55,22.60
2020,08,06,15,56,22.60
2020,08,06,15,57,22.50
2020,08,06,15,58,22.50
2020,08,06,15,59,22.40
2020,08,06,16,00,22.40
2020,08,06,16,01,22.40
2020,08,06,16,02,22.40
2020,08,06,16,03,22.30
2020,08,06,16,04,22.20
2020,08,06,16,05,22.20
2020,08,06,16,06,22.20
2020,08,06,16,07,22.20
2020,08,06,16,08,22.30
2020,08,06,16,09,22.30
2020,08,06,16,10,22.30
2020,08,06,16,11,22.20
2020,08,06,16,12,22.20
2020,08,06,16,13,22.20
2020,08,06,16,14,22.20
2020,08,06,16,15,22.20
2020,08,06,16,16,22.20
2020,08,06,16,17,22.30
2020,08,06,16,18,22.40
2020,08,06,16,19,22.50
2020,08,06,16,20,22.60
2020,08,06,16,21,22.60
2020,08,06,16,22,22.60
2020,08,06,16,23,22.60
2020,08,06,16,24,22.60
2020,08,06,16,25,22.60
2020,08,06,16,26,22.60
2020,08,06,16,27,22.70
2020,08,06,16,28,22.90
2020,08,06,16,29,22.90
2020,08,06,16,30,22.90
2020,08,06,16,31,22.80
2020,08,06,16,32,22.80
2020,08,06,16,33,22.80
2020,08,06,16,34,22.80
2020,08,06,16,35,22.80
2020,08,06,16,36,22.80
2020,08,06,16,37,22.70
2020,08,06,16,38,22.70
2020,08,06,16,39,22.60
2020,08,06,16,40,22.60
2020,08,06,16,41,22.50
2020,08,06,16,42,22.40
2020,08,06,16,43,22.30
2020,08,06,16,44,22.20
2020,08,06,16,45,22.10
2020,08,06,16,46,22.10
2020,08,06,16,47,22.00
2020,08,06,16,48,22.00
2020,08,06,16,49,21.90
2020,08,06,16,50,21.90
2020,08,06,16,51,21.80
2020,08,06,16,52,21.70
2020,08,06,16,53,21.60
2020,08,06,16,54,21.50
2020,08,06,16,55,21.50
2020,08,06,16,56,21.40
2020,08,06,16,57,21.40
2020,08,06,16,58,21.30
2020,08,06,16,59,21.30
2020,08,06,17,00,21.30
2020,08,06,17,01,21.30
2020,08,06,17,02,21.30
2020,08,06,17,03,21.30
2020,08,06,17,04,21.50
2020,08,06,17,05,21.60
2020,08,06,17,06,21.70
2020,08,06,17,07,21.90
2020,08,06,17,08,22.00
2020,08,06,17,09,22.10
2020,08,06,17,10,22.10
2020,08,06,17,11,22.10
2020,08,06,17,12,22.10
2020,08,06,17,13,22.10
2020,08,06,17,14,22.20
2020,08,06,17,15,22.20
2020,08,06,17,16,22.20
2020,08,06,17,17,22.10
2020,08,06,17,18,22.10
2020,08,06,17,19,22.00
2020,08,06,17,20,21.90
2020,08,06,17,21,21.90
2020,08,06,17,22,21.80
2020,08,06,17,23,21.80
2020,08,06,17,24,21.80
2020,08,06,17,25,21.70
2020,08,06,17,26,21.70
2020,08,06,17,27,21.60
2020,08,06,17,28,21.50
2020,08,06,17,29,21.40
2020,08,06,17,30,21.30
2020,08,06,17,31,21.30
2020,08,06,17,32,21.20
2020,08,06,17,33,21.10
2020,08,06,17,34,21.00
2020,08,06,17,35,20.90
2020,08,06,17,36,20.80
2020,08,06,17,37,20.70
2020,08,06,17,38,20.60
2020,08,06,17,39,20.60
2020,08,06,17,40,20.50
2020,08,06,17,41,20.50
2020,08,06,17,42,20.50
2020,08,06,17,43,20.40
2020,08,06,17,44,20.40
2020,08,06,17,45,20.40
2020,08,06,17,46,20.50
2020,08,06,17,47,20.50
2020,08,06,17,48,20.50
2020,08,06,17,49,20.40
2020,08,06,17,50,20.40
2020,08,06,17,51,20.30
2020,08,06,17,52,20.30
2020,08,06,17,53,20.20
2020,08,06,17,54,20.20
2020,08,06,17,55,20.20
2020,08,06,17,56,20.10
2020,08,06,17,57,20.10
2020,08,06,17,58,20.10
2020,08,06,17,59,20.10
2020,08,06,18,00,20.00
2020,08,06,18,01,20.00
2020,08,06,18,02,20.00
2020,08,06,18,03,20.00
2020,08,06,18,04,20.00
2020,08,06,18,05,19.90
2020,08,06,18,06,19.90
2020,08,06,18,07,19.80
2020,08,06,18,08,19.80
2020,08,06,18,09,19.80
2020,08,06,18,10,19.80
2020,08,06,18,11,19.70
2020,08,06,18,12,19.70
2020,08,06,18,13,19.70
2020,08,06,18,14,19.70
2020,08,06,18,15,19.70
2020,08,06,18,16,19.70
2020,08,06,18,17,19.70
2020,08,06,18,18,19.60
2020,08,06,18,19,19.60
2020,08,06,18,20,19.60
2020,08,06,18,21,19.60
2020,08,06,18,22,19.60
2020,08,06,18,23,19.60
2020,08,06,18,24,19.60
2020,08,06,18,25,19.60
2020,08,06,18,26,19.60
2020,08,06,18,27,19.50
2020,08,06,18,28,19.50
2020,08,06,18,29,19.50
2020,08,06,18,30,19.40
2020,08,06,18,31,19.40
2020,08,06,18,32,19.40
2020,08,06,18,33,19.40
2020,08,06,18,34,19.40
2020,08,06,18,35,19.40
2020,08,06,18,36,19.40
2020,08,06,18,37,19.40
2020,08,06,18,38,19.40
2020,08,06,18,39,19.40
2020,08,06,18,40,19.40
2020,08,06,18,41,19.50
2020,08,06,18,42,19.50
2020,08,06,18,43,19.60
2020,08,06,18,44,19.60
2020,08,06,18,45,19.70
2020,08,06,18,46,19.80
2020,08,06,18,47,19.90
2020,08,06,18,48,19.90
2020,08,06,18,49,20.00
2020,08,06,18,50,20.10
2020,08,06,18,51,20.30
2020,08,06,18,52,20.40
2020,08,06,18,53,20.40
2020,08,06,18,54,20.40
2020,08,06,18,55,20.40
2020,08,06,18,56,20.40
2020,08,06,18,57,20.40
2020,08,06,18,58,20.40
2020,08,06,18,59,20.40
2020,08,06,19,00,20.40
2020,08,06,19,01,20.30
2020,08,06,19,02,20.30
2020,08,06,19,03,20.20
2020,08,06,19,04,20.10
2020,08,06,19,05,20.00
2020,08,06,19,06,20.00
2020,08,06,19,07,19.90
2020,08,06,19,08,19.80
2020,08,06,19,09,19.70
2020,08,06,19,10,19.70
2020,08,06,19,11,19.60
2020,08,06,19,12,19.50
2020,08,06,19,13,19.50
2020,08,06,19,14,19.40
2020,08,06,19,15,19.40
2020,08,06,19,16,19.30
2020,08,06,19,17,19.30
2020,08,06,19,18,19.20
2020,08,06,19,19,19.20
2020,08,06,19,20,19.20
2020,08,06,19,21,19.10
2020,08,06,19,22,19.10
2020,08,06,19,23,19.10
2020,08,06,19,24,19.10
2020,08,06,19,25,19.10
2020,08,06,19,26,19.10
2020,08,06,19,27,19.10
2020,08,06,19,28,19.00
2020,08,06,19,29,19.00
2020,08,06,19,30,19.00
2020,08,06,19,31,18.90
2020,08,06,19,32,18.90
2020,08,06,19,33,18.80
2020,08,06,19,34,18.80
2020,08,06,19,35,18.80
2020,08,06,19,36,18.80
2020,08,06,19,37,18.80
2020,08,06,19,38,18.80
2020,08,06,19,39,18.80
2020,08,06,19,40,18.70
2020,08,06,19,41,18.70
2020,08,06,19,42,18.70
2020,08,06,19,43,18.70
2020,08,06,19,44,18.60
2020,08,06,19,45,18.60
2020,08,06,19,46,18.60
2020,08,06,19,47,18.60
2020,08,06,19,48,18.50
2020,08,06,19,49,18.50
2020,08,06,19,50,18.40
2020,08,06,19,51,18.40
2020,08,06,19,52,18.40
2020,08,06,19,53,18.30
2020,08,06,19,54,18.30
2020,08,06,19,55,18.30
2020,08,06,19,56,18.30
2020,08,06,19,57,18.20
2020,08,06,19,58,18.20
2020,08,06,19,59,18.20
2020,08,06,20,00,18.20
2020,08,06,20,01,18.10
2020,08,06,20,02,18.10
2020,08,06,20,03,18.10
2020,08,06,20,04,18.10
2020,08,06,20,05,18.10
2020,08,06,20,06,18.10
2020,08,06,20,07,18.10
2020,08,06,20,08,18.10
2020,08,06,20,09,18.10
2020,08,06,20,10,18.10
2020,08,06,20,11,18.10
2020,08,06,20,12,18.10
2020,08,06,20,13,18.10
